Caribou, ME

1:35 AM EDT on June 19, 2018 (GMT -0400)
Caribou Municipal

Weather History for KCAR - August, 2017

Change the Weather History Date:

Sunday, August 13, 2017

  Actual Average Record
Temperature  
Mean Temperature 67 °F 64 °F  
Max Temperature 76 °F 75 °F 91 °F (1947)
Min Temperature 57 °F 54 °F 36 °F (1941)
Degree Days  
Heating Degree Days 0 2  
Month to date heating degree days 19 26  
Since 1 June heating degree days 190 249  
Since 1 July heating degree days 58 84  
Cooling Degree Days 2 2  
Month to date cooling degree days 35 27  
Year to date cooling degree days 164 143  
Since 1 June cooling degree days 158 138  
Growing Degree Days 17 (Base 50)    
Moisture  
Dew Point 57 °F    
Average Humidity 68    
Maximum Humidity 93    
Minimum Humidity 43    
Precipitation  
Precipitation 0.04 in 0.13 in 2.36 in (1989)
Month to date precipitation 1.39 1.65  
Year to date precipitation 24.97 22.63  
Snow  
Snow 0.00 in 0.00 in 0.00 in (2002)
Month to date snowfall 0.0 0.0  
Since 1 June snowfall 0.0 0.0  
Since 1 July snowfall 0.0 0.0  
Snow Depth 0.00 in    
Sea Level Pressure  
Sea Level Pressure 29.76 in    
Wind  
Wind Speed 7 mph (SW)    
Max Wind Speed 18 mph    
Max Gust Speed 26 mph    
Visibility 10 miles    
Events Rain , Thunderstorm    
T = Trace of Precipitation, MM = Missing Value Source: NWS Daily Summary

Daily Weather History Graph

Daily Weather History Graph

Search for Another Location

Airport or City:

Astronomy

Aug. 13, 2017 Rise Set
Actual Time 5:27 AM EDT 7:45 PM EDT
Civil Twilight 4:53 AM EDT 8:18 PM EDT
Nautical Twilight 4:11 AM EDT 9:00 PM EDT
Astronomical Twilight 3:24 AM EDT 9:47 PM EDT
Moon 10:54 PM EDT (8/13) 11:45 AM EDT (8/13)
Length of Visible Light 15h 25m
Length of Day
14h 18m
Waning Gibbous, 65% of the Moon is Illuminated
Aug 13
Waning Gibbous
Aug 14
Last Quarter
Aug 21
New
Aug 29
First Quarter
Sep 6
Full

Hourly Weather History & Observations

Time (EDT) Temp. Dew Point Humidity Pressure Visibility Wind Dir Wind Speed Gust Speed Precip Events Conditions
12:54 AM 64.9 °F 62.1 °F 90% 29.76 in 10.0 mi South 6.9 mph - 0.00 in Rain Light Rain
1:40 AM 64.9 °F 62.1 °F 90% 29.75 in 10.0 mi South 4.6 mph - 0.00 in   Overcast
1:54 AM 64.9 °F 62.1 °F 90% 29.76 in 10.0 mi South 4.6 mph - 0.00 in   Overcast
2:54 AM 63.0 °F 60.1 °F 90% 29.75 in 10.0 mi SSW 5.8 mph - N/A   Mostly Cloudy
3:49 AM 62.6 °F 59.0 °F 88% 29.73 in 10.0 mi South 8.1 mph - N/A   Mostly Cloudy
3:54 AM 62.1 °F 59.0 °F 90% 29.74 in 10.0 mi South 6.9 mph - N/A   Scattered Clouds
4:54 AM 60.1 °F 57.9 °F 93% 29.74 in 10.0 mi South 6.9 mph - N/A   Partly Cloudy
5:19 AM 60.1 °F 57.9 °F 93% 29.73 in 10.0 mi South 5.8 mph - N/A   Scattered Clouds
5:54 AM 60.1 °F 57.0 °F 90% 29.73 in 10.0 mi SSW 5.8 mph - N/A   Clear
6:54 AM 62.1 °F 57.9 °F 86% 29.74 in 10.0 mi South 5.8 mph - N/A   Clear
7:54 AM 64.9 °F 60.1 °F 84% 29.74 in 10.0 mi South 6.9 mph - N/A   Clear
8:24 AM 66.0 °F 60.1 °F 81% 29.74 in 10.0 mi WSW 6.9 mph - N/A   Mostly Cloudy
8:54 AM 66.9 °F 59.0 °F 76% 29.75 in 10.0 mi SW 10.4 mph 17.3 mph N/A   Overcast
9:54 AM 71.1 °F 61.0 °F 70% 29.73 in 10.0 mi SW 8.1 mph - N/A   Mostly Cloudy
10:54 AM 70.0 °F 60.1 °F 71% 29.72 in 10.0 mi WSW 12.7 mph - N/A   Overcast
11:00 AM 69.1 °F 60.1 °F 73% 29.72 in 10.0 mi WSW 17.3 mph 21.9 mph 0.00 in Rain , Thunderstorm Light Thunderstorms and Rain
11:11 AM 66.9 °F 59.0 °F 76% 29.72 in 9.0 mi WSW 15.0 mph 23.0 mph 0.00 in Rain , Thunderstorm Light Thunderstorms and Rain
11:20 AM 66.0 °F 60.1 °F 81% 29.72 in 2.5 mi WSW 8.1 mph - 0.02 in Rain , Thunderstorm Heavy Rain
11:30 AM 68.0 °F 64.0 °F 87% 29.71 in 9.0 mi WSW 9.2 mph - 0.04 in Rain , Thunderstorm Light Rain
11:48 AM 69.8 °F 62.6 °F 78% 29.72 in 10.0 mi West 12.7 mph 20.7 mph 0.04 in   Mostly Cloudy
11:54 AM 69.1 °F 62.1 °F 78% 29.73 in 10.0 mi West 10.4 mph 20.7 mph 0.04 in   Mostly Cloudy
12:22 PM 71.1 °F 60.1 °F 68% 29.72 in 10.0 mi West 9.2 mph 17.3 mph N/A   Mostly Cloudy
12:54 PM 72.0 °F 60.1 °F 66% 29.72 in 10.0 mi West 9.2 mph - N/A   Mostly Cloudy
1:54 PM 72.0 °F 59.0 °F 64% 29.73 in 10.0 mi WNW 10.4 mph - 0.00 in   Scattered Clouds
2:54 PM 72.0 °F 55.0 °F 55% 29.75 in 10.0 mi NW 13.8 mph 20.7 mph N/A   Scattered Clouds
3:54 PM 75.0 °F 53.1 °F 46% 29.75 in 10.0 mi WNW 11.5 mph 20.7 mph N/A   Clear
4:54 PM 75.0 °F 51.1 °F 43% 29.77 in 10.0 mi NW 12.7 mph 18.4 mph N/A   Clear
5:54 PM 73.9 °F 50.0 °F 43% 29.79 in 10.0 mi Variable 4.6 mph - N/A   Partly Cloudy
6:54 PM 72.0 °F 52.0 °F 49% 29.80 in 10.0 mi Calm Calm - N/A   Clear
7:54 PM 66.9 °F 51.1 °F 57% 29.81 in 10.0 mi West 3.5 mph - N/A   Clear
8:54 PM 64.0 °F 52.0 °F 65% 29.83 in 10.0 mi WSW 3.5 mph - N/A   Clear
9:54 PM 62.1 °F 52.0 °F 70% 29.83 in 10.0 mi SW 4.6 mph - N/A   Clear
10:54 PM 60.1 °F 51.1 °F 72% 29.85 in 10.0 mi WSW 5.8 mph - N/A   Clear
11:54 PM 59.0 °F 51.1 °F 75% 29.87 in 10.0 mi WSW 4.6 mph - N/A   Clear